Voltar ao catálogo

STARLINK-11076

AtivoComunicaçõesVLEO
NORAD 58709·PAYLOAD·🇺🇸 United States

Lançado Jan 3, 2024 de Vandenberg Space Force Base

Loading…

Próximas Passagens (próximas 24 horas)

TLE

AtualizadoSource: CelesTrak SupGP

Época: Sep 15, 2026, 01:50 UTC

1 58709C 24002E   26258.07687500 -.00024682  00000+0 -20320-3 0  2584
2 58709  53.1572  60.2947 0001006  72.7667 313.4940 15.69735595    14

Acompanhe STARLINK-11076 em tempo real com AllMySat

Download on the App Store